Lid_Strength_Index
2 2 2 2 2 2 2 2 2 2 2 2 2 2 2 3 3 2 4 2 1 -2 0 2 2 2 3 5 4 3 7 8 8 9 9 4 6 3 3 4 3 3 3 3 1
2 2 1 1 1 2 2 2 2 1 2 2 2 2 3 3 3 3 -1 -3 -3 -3 3 3 4 4 6 5 5 5 7 7 5 5 5 5 5 4 4 4 5 4 3 2 2
2 2 2 2 2 2 2 2 2 2 1 2 2 2 3 3 3 3 -1 -3 -3 -1 3 1 3 5 6 6 5 5 7 5 5 5 5 5 5 4 5 5 4 5 4 3 2
2 2 2 2 2 2 2 2 2 2 2 2 2 2 3 3 7 3 -2 -3 -3 3 3 2 4 6 7 5 5 6 5 4 4 5 5 5 4 5 4 4 3 3 3 3 3
2 2 2 2 2 2 2 2 2 2 2 2 2 2 3 4 3 1 -2 -2 3 3 3 3 5 6 7 5 4 5 5 4 4 5 5 4 5 4 4 3 2 3 3 3 3
3 2 2 2 3 2 3 3 3 3 2 2 2 2 3 5 1 2 3 3 3 3 3 3 4 5 6 5 5 4 4 4 4 4 4 5 5 4 4 3 3 3 3 3 3
3 3 3 3 3 3 3 3 3 3 1 1 2 1 2 3 0 2 2 3 2 3 4 3 3 4 5 5 3 4 6 5 5 4 5 4 6 5 4 3 3 3 3 3 2
3 3 3 3 3 3 3 3 3 2 0 2 2 1 4 1 -1 1 1 2 2 2 3 3 2 3 3 3 4 6 5 8 5 5 4 5 8 5 4 4 4 3 3 3 3
3 3 3 3 3 3 3 3 3 1 -0 1 1 2 4 1 1 0 1 3 3 3 3 2 3 4 4 6 7 6 9 8 7 5 5 5 7 5 4 4 4 4 3 3 3
3 3 3 3 3 3 4 3 0 1 1 -0 1 3 2 5 1 1 1 2 4 4 5 5 5 6 6 7 10 9 8 8 8 6 5 6 6 5 4 4 4 4 3 3 3
3 3 4 4 4 4 3 0 3 4 2 4 3 3 4 3 0 2 2 3 4 5 8 6 7 8 7 6 6 7 7 8 7 5 6 6 6 6 5 4 4 4 4 3 3
3 3 3 4 4 4 3 2 3 2 5 2 2 3 2 1 4 2 2 5 6 8 7 7 8 6 5 5 7 7 8 8 7 6 6 7 7 5 5 5 4 4 4 3 3
3 3 4 4 4 3 1 2 -0 1 5 4 3 3 3 2 4 4 3 4 6 8 7 7 6 5 6 7 7 7 8 8 8 6 6 7 8 7 5 4 4 4 3 3 3
3 3 4 4 3 0 2 -0 -0 1 8 6 4 4 3 3 5 2 2 3 5 6 6 6 5 6 7 7 7 8 6 6 7 8 10 6 11 7 6 6 5 4 4 3 3
3 3 4 4 3 2 1 -1 -0 1 13 6 5 2 3 5 4 4 2 3 6 6 6 7 6 6 7 7 6 7 6 6 7 8 8 8 10 8 6 7 6 5 4 3 3
4 3 4 1 2 0 -1 -0 1 8 12 7 5 6 5 5 4 3 4 2 3 5 5 6 4 5 6 5 5 5 6 6 7 8 11 9 9 9 8 6 5 4 4 3 3
4 4 5 2 2 -1 -0 2 9 10 6 7 7 5 6 6 5 5 5 6 7 8 8 6 6 5 5 6 5 6 8 11 12 12 12 8 9 8 6 5 5 5 4 4 3
5 5 2 1 -1 -1 1 6 11 8 7 5 6 6 7 6 6 6 6 7 6 6 8 9 10 7 5 6 7 7 7 11 14 13 12 8 11 8 5 4 4 4 4 4 4
6 1 0 -0 -1 -0 4 9 9 7 6 6 6 7 7 6 6 6 6 7 6 5 8 9 9 6 6 5 5 7 9 6 9 9 11 10 8 6 6 6 5 5 5 4 4
4 2 2 -1 -1 1 6 9 7 5 5 6 8 7 8 7 7 7 7 6 6 5 5 7 10 6 6 5 5 6 6 9 9 13 14 11 11 11 8 7 6 6 5 4 4
3 4 1 -1 -0 4 9 7 6 4 5 6 7 7 7 7 7 7 7 6 5 5 5 6 7 8 6 7 8 7 8 8 8 9 13 13 11 7 8 7 7 6 5 4 4
3 6 1 -0 6 5 7 6 8 5 4 5 5 6 7 6 7 7 8 7 5 5 7 6 7 10 8 6 5 6 7 7 11 11 9 10 11 6 6 6 5 5 5 4 3
5 4 1 1 8 7 5 6 5 5 5 6 6 5 5 7 8 7 7 5 5 5 8 7 8 11 10 7 6 7 7 7 7 8 11 13 11 6 5 6 5 5 5 4 4
5 6 3 3 3 6 7 7 6 4 5 5 6 5 6 7 6 7 7 6 5 5 4 5 8 10 12 10 8 9 8 7 8 11 11 10 9 7 7 7 6 5 5 4 4
4 5 4 7 6 5 5 6 7 7 5 5 6 6 7 8 7 8 6 6 6 6 6 6 10 8 8 8 8 8 8 8 9 8 10 9 8 7 7 6 5 5 4 4 4
5 5 4 5 5 6 6 6 7 6 6 7 7 6 6 8 8 9 8 7 7 6 6 6 10 9 10 8 8 9 8 8 8 8 8 8 8 6 5 5 6 5 5 5 5
4 4 5 6 6 6 6 6 6 5 5 5 6 6 7 7 5 5 5 5 6 7 7 7 9 10 12 8 8 10 8 8 8 7 7 9 8 6 7 7 7 6 5 6 5